This is the latest recevied weather packets stored in our database for station/object KC1OEK-13. If no packets are shown the sender has not sent any weather packets the latest 10 day(s).
| Time | Temp. | Humidity | Pressure | Rain* | Wind** | Luminosity | Snow |
|---|---|---|---|---|---|---|---|
| 1777658556 | 15.56° C | 40% | 1012.5 hPa | 0 mm | - | 825 W/m² | - |
| 1777658253 | 15° C | 39% | 1012.3 hPa | 0 mm | - | 197 W/m² | - |
| 1777657951 | 15° C | 38% | 1012.4 hPa | 0 mm | - | 821 W/m² | - |
| 1777657647 | 15° C | 39% | 1012.3 hPa | 0 mm | - | 216 W/m² | - |
| 1777657344 | 15.56° C | 41% | 1012.4 hPa | 0 mm | - | 748 W/m² | - |
| 1777657042 | 15° C | 38% | 1012.5 hPa | 0 mm | - | 847 W/m² | - |
| 1777656739 | 15° C | 42% | 1012.4 hPa | 0 mm | - | 806 W/m² | - |
| 1777656435 | 14.44° C | 41% | 1012.4 hPa | 0 mm | - | 247 W/m² | - |
| 1777656130 | 13.89° C | 40% | 1012.4 hPa | 0 mm | - | 907 W/m² | - |
| 1777655826 | 14.44° C | 39% | 1012.6 hPa | 0 mm | - | 254 W/m² | - |
| 1777655524 | 13.89° C | 39% | 1012.7 hPa | 0 mm | - | 200 W/m² | - |
| 1777655220 | 15° C | 38% | 1012.7 hPa | 0 mm | - | 572 W/m² | - |
| 1777654917 | 15.56° C | 43% | 1012.6 hPa | 0 mm | - | 888 W/m² | - |
| 1777654614 | 15.56° C | 43% | 1012.9 hPa | 0 mm | - | 902 W/m² | - |
| 1777654311 | 15° C | 42% | 1012.7 hPa | 0 mm | - | 279 W/m² | - |
| 1777654010 | 14.44° C | 42% | 1012.7 hPa | 0 mm | - | 957 W/m² | - |
| 1777653706 | 14.44° C | 39% | 1012.7 hPa | 0 mm | - | 779 W/m² | - |
| 1777653402 | 14.44° C | 40% | 1012.6 hPa | 0 mm | - | 818 W/m² | - |
| 1777653099 | 13.89° C | 40% | 1012.7 hPa | 0 mm | - | 804 W/m² | - |
| 1777652795 | 13.89° C | 42% | 1012.8 hPa | 0 mm | - | 815 W/m² | - |
| 1777652492 | 13.89° C | 41% | 1012.9 hPa | 0 mm | - | 788 W/m² | - |
| 1777652190 | 13.89° C | 41% | 1012.8 hPa | 0 mm | - | 775 W/m² | - |
| 1777651887 | 13.33° C | 41% | 1013 hPa | 0 mm | - | 788 W/m² | - |
| 1777651583 | 13.33° C | 42% | 1013 hPa | 0 mm | - | 761 W/m² | - |
| 1777651281 | 13.33° C | 43% | 1013 hPa | 0 mm | - | 753 W/m² | - |
* Rain latest hour (hover to see other rain measurements)
** Current wind speed in m/s (hover to see current wind gust speed)